Location: Omaha
(41.2590°N, 95.9380°W)
Time: 07:34:40
(UTC-05:00)

ISS - Pass Details

Date: 07 October 2017
Orbit: 401 x 408 km, 51.6° (Epoch: 19 October)

Event Time Altitude Azimuth Distance (km) Brightness Sun altitude
Rises 21:15:06 0° 310° (NW) 2,329 1.1 -26.9°
Reaches altitude 10° 21:17:21 10° 322° (NW) 1,468 -0.3 -27.3°
Enters shadow 21:18:03 15° 329° (NNW) 1,226 -0.9 -27.4°
